MERIDEN-MARKHAM, CT current weather conditions

sailwx.info

Wind from 020 at 5 knots

Air temperature 2.0° C
Visibility: greater than 8.7 NM
Dewpoint -1.0° C

Last reported at 2020-Jan-25 11:10 UTC.
Time now 2020-Jan-25 12:26 UTC

Location: N 41°31' W 072°50'.
View on Google Maps.

See reports from other nearby stations

  
Tides and Currents Weather Stations Pressure Air Temp Water Temp Dewpoint Dewpoint Depression Visibility Wind Speed Wind Dir Waves Ship Positions
date/time (UTC)wind fromknots sea level pressurealtimeterstation pressurevisibilityair tempwater tempwave heightnotes
2020-Jan-25 12:10 360 5 8.7 2.0
2020-Jan-25 12:05 010 5 8.7 2.0
2020-Jan-25 12:00 020 6 8.7 2.0
2020-Jan-25 11:55 010 6 8.7 2.0
2020-Jan-25 11:53 020 6 8.7 2.2
2020-Jan-25 11:45 020 6 8.7 2.0
2020-Jan-25 11:44 020 6 8.7 2.2
2020-Jan-25 11:40 010 7 8.7 2.0
2020-Jan-25 11:35 010 6 8.7 2.0
2020-Jan-25 11:30 010 5 8.7 2.0
2020-Jan-25 11:25 010 5 8.7 2.0
2020-Jan-25 11:20 010 5 8.7 2.0
2020-Jan-25 11:10 020 5 8.7 2.0
2020-Jan-25 11:05 030 7 8.7 2.0
2020-Jan-25 11:00 020 5 8.7 2.0
2020-Jan-25 10:55 010 5 8.7 2.0
2020-Jan-25 10:53 030 6 8.7 2.2
2020-Jan-25 10:50 020 5 8.7 2.0
2020-Jan-25 10:45 030 4 8.7 2.0
2020-Jan-25 10:44 8.7 2.2
2020-Jan-25 10:40 020 4 8.7 2.0
2020-Jan-25 10:35 050 5 8.7 2.0
2020-Jan-25 10:30 040 5 8.7 2.0
2020-Jan-25 10:25 030 5 8.7 2.0
2020-Jan-25 10:20 040 4 8.7 2.0
2020-Jan-25 10:18 8.7 1.1
2020-Jan-25 10:15 050 3 8.7 1.0
2020-Jan-25 10:10 020 4 8.7 1.0
2020-Jan-25 10:05 010 4 8.7 1.0
2020-Jan-25 10:00 010 3 8.7 1.0
2020-Jan-25 09:55 010 4 8.7 1.0
2020-Jan-25 09:53 8.7 1.1
2020-Jan-25 09:50 020 4 8.7 1.0
2020-Jan-25 09:45 020 3 8.7 1.0
2020-Jan-25 09:40 020 5 8.7 1.0
2020-Jan-25 09:35 020 4 8.7 1.0
2020-Jan-25 09:30 020 5 8.7 1.0
2020-Jan-25 09:25 020 4 8.7 1.0
2020-Jan-25 09:20 360 5 8.7 2.0
2020-Jan-25 09:15 010 4 8.7 2.0
2020-Jan-25 09:08 020 5 8.7 1.1
2020-Jan-25 09:05 020 4 8.7 1.0
2020-Jan-25 09:00 030 5 8.7 1.0
2020-Jan-25 08:55 020 6 8.7 1.0
2020-Jan-25 08:53 020 5 8.7 1.1
2020-Jan-25 08:50 010 3 8.7 2.0
2020-Jan-25 08:45 010 4 8.7 2.0
2020-Jan-25 08:40 010 4 8.7 2.0
2020-Jan-25 08:35 010 4 8.7 1.0
2020-Jan-25 08:30 020 3 8.7 1.0
2020-Jan-25 08:25 020 4 8.7 1.0
2020-Jan-25 08:20 020 3 8.7 1.0
2020-Jan-25 08:17 8.7 1.1
2020-Jan-25 08:15 010 4 8.7 1.0
2020-Jan-25 08:10 010 4 8.7 2.0
2020-Jan-25 08:05 030 5 8.7 2.0
2020-Jan-25 08:00 020 4 8.7 1.0
2020-Jan-25 07:55 030 5 8.7 1.0
2020-Jan-25 07:53 8.7 1.1
2020-Jan-25 07:50 030 4 8.7 1.0
2020-Jan-25 07:45 030 5 8.7 1.0
2020-Jan-25 07:40 040 3 8.7 1.0
2020-Jan-25 07:35 030 5 8.7 1.0
2020-Jan-25 07:30 7.8 1.0
2020-Jan-25 07:25 040 4 6.1-0.0
2020-Jan-25 07:20 020 4 5.2-0.0 Mist.
2020-Jan-25 07:15 010 4 5.2-0.0 Mist.
2020-Jan-25 07:10 010 3 5.2-0.0 Mist.
2020-Jan-25 07:05 310 3 5.2-1.0 Mist.
2020-Jan-25 07:02 310 2 6.1-0.0
2020-Jan-25 07:00 6.1 1.0
2020-Jan-25 06:55 7.0 1.0
2020-Jan-25 06:53 360 2 6.9 1.1
2020-Jan-25 06:50 010 3 7.8 1.0
2020-Jan-25 06:45 360 3 7.0 1.0
2020-Jan-25 06:43 360 2 6.9 1.1
2020-Jan-25 06:40 360 3 7.0 1.0
2020-Jan-25 06:35 010 3 7.0 1.0
2020-Jan-25 06:30 010 3 7.0 1.0
2020-Jan-25 06:25 7.0 1.0
2020-Jan-25 06:20 010 3 7.0 1.0
2020-Jan-25 06:15 010 5 7.8 2.0
2020-Jan-25 06:10 010 4 8.7 2.0
2020-Jan-25 06:05 010 3 8.7 2.0
2020-Jan-25 06:00 020 4 8.7 2.0
2020-Jan-25 05:53 030 4 8.7 1.7
2020-Jan-25 05:50 030 3 8.7 2.0
2020-Jan-25 05:45 040 5 8.7 2.0
2020-Jan-25 05:40 040 3 8.7 2.0
2020-Jan-25 05:34 030 2 8.7 1.7
2020-Jan-25 05:25 050 6 7.8 2.0
2020-Jan-25 05:21 030 6 7.8 1.7
2020-Jan-25 05:20 030 5 7.8 2.0
2020-Jan-25 05:15 040 6 7.8 2.0
2020-Jan-25 05:14 040 6 7.8 1.7
2020-Jan-25 05:10 040 5 7.8 2.0
2020-Jan-25 05:00 030 4 8.7 2.0
2020-Jan-25 04:55 030 4 8.7 2.0
2020-Jan-25 04:53 030 4 8.7 1.7
2020-Jan-25 04:50 030 5 8.7 2.0
2020-Jan-25 04:45 020 5 8.7 2.0
2020-Jan-25 04:40 360 5 8.7 2.0
2020-Jan-25 04:35 010 4 8.7 2.0
2020-Jan-25 04:33 010 5 8.7 2.2
2020-Jan-25 04:25 360 4 8.7 2.0
2020-Jan-25 04:20 360 5 8.7 2.0
2020-Jan-25 04:15 340 3 8.7 2.0
2020-Jan-25 04:10 350 4 8.7 2.0
2020-Jan-25 04:05 350 4 8.7 2.0
2020-Jan-25 04:04 350 4 8.7 2.2
2020-Jan-25 04:00 350 4 8.7 2.0
2020-Jan-25 03:55 350 6 8.7 3.0
2020-Jan-25 03:53 350 5 8.7 2.8
2020-Jan-25 03:50 350 4 8.7 3.0
2020-Jan-25 03:45 350 5 8.7 3.0
2020-Jan-25 03:40 350 5 8.7 3.0
2020-Jan-25 03:37 350 4 8.7 2.8
2020-Jan-25 03:35 360 5 8.7 3.0
2020-Jan-25 03:30 360 5 8.7 3.0
2020-Jan-25 03:25 010 5 8.7 3.0
2020-Jan-25 03:20 010 5 8.7 2.0
2020-Jan-25 03:15 040 4 8.7 3.0
2020-Jan-25 03:10 060 5 8.7 3.0
2020-Jan-25 03:05 060 5 8.7 3.0
2020-Jan-25 02:55 100 5 8.7 3.0
2020-Jan-25 02:53 120 6 8.7 3.3
2020-Jan-25 02:50 110 6 8.7 2.0
2020-Jan-25 02:45 050 4 8.7 1.0
2020-Jan-25 02:40 060 4 8.7-1.0
2020-Jan-25 02:35 8.7-1.0
2020-Jan-25 02:30 8.7-1.0
2020-Jan-25 02:25 8.7-2.0
2020-Jan-25 02:20 8.7-1.0
2020-Jan-25 02:15 8.7-1.0
2020-Jan-25 02:10 8.7-2.0
2020-Jan-25 02:05 8.7-1.0
2020-Jan-25 02:00 8.7-1.0
2020-Jan-25 01:55 8.7-1.0
2020-Jan-25 01:53 320 2 8.7-1.1
2020-Jan-25 01:50 8.7-1.0
2020-Jan-25 01:45 8.7-1.0
2020-Jan-25 01:40 320 3 8.7-1.0
2020-Jan-25 01:35 8.7-1.0
2020-Jan-25 01:30 8.7-1.0
2020-Jan-25 01:25 8.7-1.0
2020-Jan-25 01:20 8.7-1.0
2020-Jan-25 01:15 8.7-1.0
2020-Jan-25 01:10 7.8-1.0
2020-Jan-25 01:05 7.8-1.0
2020-Jan-25 01:00 7.8-1.0
2020-Jan-25 00:53 8.7-0.0
2020-Jan-25 00:50 8.7-1.0
2020-Jan-25 00:30 8.7-1.0
2020-Jan-25 00:25 8.7-1.0
2020-Jan-25 00:20 8.7-1.0
2020-Jan-25 00:15 8.7-0.0
2020-Jan-25 00:10 8.7-0.0
2020-Jan-25 00:05 8.7 1.0
2020-Jan-25 00:00 8.7 1.0
2020-Jan-24 23:55 8.7 1.0
2020-Jan-24 23:53 8.7 1.1
2020-Jan-24 23:50 8.7 1.0
2020-Jan-24 23:45 8.7 1.0
2020-Jan-24 23:40 8.7 1.0
2020-Jan-24 23:35 8.7 2.0
2020-Jan-24 23:30 8.7 2.0
2020-Jan-24 23:25 8.7 2.0
2020-Jan-24 23:20 8.7 3.0
2020-Jan-24 23:15 8.7 3.0
2020-Jan-24 23:10 8.7 3.0
2020-Jan-24 23:05 8.7 2.0
2020-Jan-24 23:00 8.7 2.0
2020-Jan-24 22:55 220 3 8.7 3.0
2020-Jan-24 22:53 8.7 2.8
2020-Jan-24 22:50 8.7 3.0
2020-Jan-24 22:45 8.7 3.0
2020-Jan-24 22:40 8.7 3.0
2020-Jan-24 22:35 8.7 2.0
2020-Jan-24 22:30 8.7 3.0
2020-Jan-24 22:25 8.7 3.0
2020-Jan-24 22:20 8.7 3.0
2020-Jan-24 22:15 8.7 3.0
2020-Jan-24 22:10 8.7 4.0
2020-Jan-24 22:05 8.7 4.0
2020-Jan-24 22:00 8.7 4.0
2020-Jan-24 21:55 140 7 8.7 4.0
2020-Jan-24 21:53 150 6 8.7 3.9
2020-Jan-24 21:50 180 3 8.7 3.0
2020-Jan-24 21:45 8.7 4.0
2020-Jan-24 21:40 8.7 4.0
2020-Jan-24 21:35 8.7 4.0
2020-Jan-24 21:30 8.7 6.0
2020-Jan-24 21:25 8.7 7.0
2020-Jan-24 21:20 8.7 8.0
2020-Jan-24 21:15 8.7 8.0
2020-Jan-24 21:10 010 3 8.7 8.0
2020-Jan-24 21:05 360 3 8.7 8.0
2020-Jan-24 21:00 010 3 8.7 8.0
2020-Jan-24 20:55 030 5 8.7 8.0
2020-Jan-24 20:53 8.7 8.3
2020-Jan-24 20:50 030 5 8.7 8.0
2020-Jan-24 20:45 030 5 8.7 9.0
2020-Jan-24 20:40 070 4 8.7 9.0
2020-Jan-24 20:35 030 4 8.7 9.0
2020-Jan-24 20:30 020 5 8.710.0
2020-Jan-24 20:25 360 4 8.710.0
2020-Jan-24 20:20 040 4 8.710.0
2020-Jan-24 20:15 350 3 8.711.0
2020-Jan-24 20:10 070 4 8.710.0
2020-Jan-24 20:05 070 4 8.711.0
2020-Jan-24 20:00 060 3 8.710.0
2020-Jan-24 19:55 080 4 8.710.0
2020-Jan-24 19:53 8.710.0
2020-Jan-24 19:50 110 5 8.710.0
2020-Jan-24 19:10 090 5 8.710.0
2020-Jan-24 19:05 100 5 8.710.0
2020-Jan-24 18:55 360 4 8.7 9.0
2020-Jan-24 18:53 8.7 8.9
2020-Jan-24 18:50 8.7 9.0
2020-Jan-24 18:45 340 3 8.7 9.0
2020-Jan-24 18:30 330 3 8.7 8.0
2020-Jan-24 18:25 310 6 8.7 8.0
2020-Jan-24 18:20 360 5 8.7 8.0
2020-Jan-24 18:10 360 4 8.7 8.0
2020-Jan-24 18:05 340 4 8.7 8.0
2020-Jan-24 18:00 300 6 8.7 7.0
2020-Jan-24 17:55 310 8 8.7 7.0
2020-Jan-24 17:53 310 7 8.7 7.2
2020-Jan-24 17:50 310 8 8.7 7.0
2020-Jan-24 17:45 300 8 8.7 7.0
2020-Jan-24 17:40 8.7 7.0
2020-Jan-24 17:35 010 6 8.7 7.0
2020-Jan-24 17:25 020 3 8.7 7.0
2020-Jan-24 17:20 020 5 8.7 8.0
2020-Jan-24 17:15 060 6 8.7 7.0
2020-Jan-24 17:10 020 6 8.7 7.0
2020-Jan-24 17:05 020 6 8.7 7.0
2020-Jan-24 17:00 360 5 8.7 7.0
2020-Jan-24 16:55 320 8 8.7 6.0
2020-Jan-24 16:53 320 7 8.7 6.7
2020-Jan-24 16:50 340 7 8.7 7.0
2020-Jan-24 16:45 020 4 8.7 7.0
2020-Jan-24 16:40 360 4 8.7 7.0
2020-Jan-24 16:35 340 5 8.7 7.0
2020-Jan-24 16:30 050 5 8.7 6.0
2020-Jan-24 16:25 070 6 8.7 6.0
2020-Jan-24 16:20 080 6 8.7 7.0
2020-Jan-24 16:15 030 3 8.7 6.0
2020-Jan-24 16:10 070 4 8.7 6.0
2020-Jan-24 16:05 020 5 8.7 6.0
2020-Jan-24 16:00 020 6 8.7 6.0
2020-Jan-24 15:55 030 4 8.7 6.0
2020-Jan-24 15:53 010 2 8.7 5.0
2020-Jan-24 15:50 350 3 8.7 5.0
2020-Jan-24 15:45 340 5 8.7 5.0
2020-Jan-24 15:40 010 4 8.7 5.0
2020-Jan-24 15:35 360 3 8.7 5.0
2020-Jan-24 15:30 030 4 8.7 5.0
2020-Jan-24 15:25 360 3 8.7 4.0
2020-Jan-24 15:20 350 3 8.7 4.0
2020-Jan-24 15:15 010 5 8.7 4.0
2020-Jan-24 15:10 010 4 8.7 4.0
2020-Jan-24 15:05 8.7 3.0
2020-Jan-24 15:00 040 4 8.7 3.0
2020-Jan-24 14:55 040 4 8.7 3.0
2020-Jan-24 14:53 020 4 8.7 2.8
2020-Jan-24 14:50 040 5 8.7 3.0
2020-Jan-24 14:45 020 6 8.7 3.0
2020-Jan-24 14:35 010 5 8.7 2.0
2020-Jan-24 14:30 010 5 8.7 2.0
2020-Jan-24 14:25 030 6 8.7 2.0
2020-Jan-24 14:20 010 6 8.7 2.0
2020-Jan-24 14:15 010 6 8.7 2.0
2020-Jan-24 14:10 8.7 1.0
2020-Jan-24 14:05 8.7 1.0
2020-Jan-24 14:00 8.7 1.0
2020-Jan-24 13:55 8.7-0.0
2020-Jan-24 13:53 8.7-0.0
2020-Jan-24 13:50 8.7-0.0
2020-Jan-24 13:45 8.7-1.0
2020-Jan-24 13:40 8.7-1.0
2020-Jan-24 13:35 8.7-1.0
2020-Jan-24 13:30 8.7-1.0
2020-Jan-24 13:25 7.8-1.0
2020-Jan-24 13:20 7.8-2.0
2020-Jan-24 13:15 7.8-2.0
2020-Jan-24 13:10 320 4 8.7-2.0
2020-Jan-24 13:05 300 5 7.8-3.0
2020-Jan-24 13:00 300 6 7.8-3.0
2020-Jan-24 12:55 310 5 8.7-3.0
2020-Jan-24 12:53 280 7 7.8-3.3
2020-Jan-24 12:50 290 7 7.8-3.0
2020-Jan-24 12:45 290 6 7.8-4.0
2020-Jan-24 12:40 280 7 7.0-4.0
2020-Jan-24 12:35 6.1-4.0
2020-Jan-24 12:30 350 3 6.1-4.0
2020-Jan-24 12:25 7.0-4.0
2020-Jan-24 12:20 300 5 7.0-3.0
2020-Jan-24 12:15 320 4 7.0-3.0
2020-Jan-24 12:10 280 8 7.8-4.0
2020-Jan-24 12:05 310 5 8.7-4.0
2020-Jan-24 12:00 280 7 8.7-4.0
2020-Jan-24 11:55 280 7 8.7-4.0
2020-Jan-24 11:53 280 6 8.7-3.9
2020-Jan-24 11:50 280 6 8.7-4.0
2020-Jan-24 11:45 7.8-4.0
2020-Jan-24 11:40 7.0-4.0
2020-Jan-24 11:35 7.0-4.0
2020-Jan-24 11:30 7.0-4.0
2020-Jan-24 11:25 7.8-4.0
2020-Jan-24 11:20 280 8 8.7-3.0
2020-Jan-24 11:15 8.7-3.0
2020-Jan-24 11:10 320 3 8.7-4.0
2020-Jan-24 11:00 280 7 7.8-4.0
2020-Jan-24 10:55 280 8 7.0-3.0
2020-Jan-24 10:53 280 6 6.9-3.9
2020-Jan-24 10:50 340 3 7.0-4.0
2020-Jan-24 10:45 300 6 7.0-3.0
2020-Jan-24 10:40 320 4 7.0-3.0
2020-Jan-24 10:35 290 8 7.0-3.0
2020-Jan-24 10:30 290 7 7.0-3.0
2020-Jan-24 10:25 290 7 7.0-3.0
2020-Jan-24 10:20 290 7 7.0-3.0
2020-Jan-24 10:10 300 5 6.1-3.0
2020-Jan-24 10:05 6.1-4.0
2020-Jan-24 10:00 7.0-3.0
2020-Jan-24 09:53 6.9-3.3
2020-Jan-24 09:50 7.0-3.0
2020-Jan-24 09:40 290 8 7.0-3.0
2020-Jan-24 09:35 290 7 6.1-3.0
2020-Jan-24 09:30 290 8 6.1-3.0
2020-Jan-24 09:25 7.0-3.0
2020-Jan-24 09:15 290 5 6.1-3.0
2020-Jan-24 09:10 280 6 5.2-3.0 Mist.
2020-Jan-24 09:05 290 6 5.2-3.0 Mist.
2020-Jan-24 09:00 4.3-3.0 Mist.
2020-Jan-24 08:55 5.2-3.0 Mist.
2020-Jan-24 08:53 5.2-3.3 Mist.
2020-Jan-24 08:50 5.2-3.0 Mist.
2020-Jan-24 08:45 6.1-3.0
2020-Jan-24 08:40 6.1-3.0
2020-Jan-24 08:35 310 4 6.1-3.0
2020-Jan-24 08:30 6.1-3.0
2020-Jan-24 08:25 6.1-3.0
2020-Jan-24 08:20 320 3 6.1-3.0
2020-Jan-24 08:15 300 4 6.1-3.0
2020-Jan-24 08:10 290 3 6.1-3.0
2020-Jan-24 08:05 6.1-3.0
2020-Jan-24 08:00 5.2-3.0 Mist.
2020-Jan-24 07:55 5.2-3.0 Mist.
2020-Jan-24 07:53 150 2 6.1-3.3
2020-Jan-24 07:50 140 6 6.1-3.0
2020-Jan-24 07:45 140 4 6.1-3.0
2020-Jan-24 07:40 6.1-3.0
2020-Jan-24 07:35 290 3 6.1-3.0
2020-Jan-24 07:30 6.1-3.0
2020-Jan-24 07:25 6.1-3.0
2020-Jan-24 07:20 7.0-3.0
2020-Jan-24 07:15 7.0-3.0
2020-Jan-24 07:10 7.0-2.0
2020-Jan-24 07:05 7.0-2.0
2020-Jan-24 07:00 7.0-2.0
2020-Jan-24 06:53 6.9-2.2
2020-Jan-24 06:50 7.0-3.0
2020-Jan-24 06:45 7.0-3.0
2020-Jan-24 06:40 7.0-2.0
2020-Jan-24 06:35 7.0-2.0
2020-Jan-24 06:30 7.0-2.0
2020-Jan-24 06:25 7.0-2.0
2020-Jan-24 06:20 7.0-2.0
2020-Jan-24 06:15 6.1-3.0
2020-Jan-24 06:10 140 3 6.1-3.0
2020-Jan-24 06:05 6.1-2.0
2020-Jan-24 06:00 7.0-2.0
2020-Jan-24 05:55 5.2-2.0 Haze.
2020-Jan-24 05:53 5.2-1.7 Haze.
2020-Jan-24 05:50 5.2-2.0 Mist.
2020-Jan-24 05:45 6.1-2.0
2020-Jan-24 05:40 7.8-2.0
2020-Jan-24 05:35 7.8-2.0
2020-Jan-24 05:30 7.8-2.0
2020-Jan-24 05:25 7.8-2.0
2020-Jan-24 05:20 7.8-2.0
2020-Jan-24 05:15 7.8-2.0
2020-Jan-24 05:10 7.0-2.0
2020-Jan-24 05:05 7.0-2.0
2020-Jan-24 05:00 7.0-2.0
2020-Jan-24 04:55 7.8-2.0
2020-Jan-24 04:53 7.8-2.2
2020-Jan-24 04:50 7.8-2.0
2020-Jan-24 04:45 7.8-2.0
2020-Jan-24 04:40 7.8-2.0
2020-Jan-24 04:35 7.8-2.0
2020-Jan-24 04:30 7.8-2.0
2020-Jan-24 04:25 7.8-2.0
2020-Jan-24 04:20 7.8-2.0
2020-Jan-24 04:15 7.8-2.0
2020-Jan-24 04:10 7.8-2.0
2020-Jan-24 04:05 7.8-3.0
2020-Jan-24 04:00 7.8-3.0
2020-Jan-24 03:55 8.7-2.0
2020-Jan-24 03:53 8.7-2.2
2020-Jan-24 03:50 8.7-2.0
2020-Jan-24 03:45 8.7-2.0
2020-Jan-24 03:40 7.8-2.0
2020-Jan-24 03:35 7.8-2.0
2020-Jan-24 03:25 8.7-2.0
2020-Jan-24 03:00 8.7-2.0
2020-Jan-24 02:55 8.7-2.0
2020-Jan-24 02:53 8.7-1.7
2020-Jan-24 02:50 8.7-2.0
2020-Jan-24 02:45 8.7-2.0
2020-Jan-24 02:40 8.7-2.0
2020-Jan-24 02:35 8.7-2.0
2020-Jan-24 02:30 8.7-2.0
2020-Jan-24 02:25 8.7-2.0
2020-Jan-24 02:20 8.7-2.0
2020-Jan-24 02:15 8.7-2.0
2020-Jan-24 02:10 8.7-2.0
2020-Jan-24 02:05 8.7-2.0
2020-Jan-24 02:00 8.7-2.0
2020-Jan-24 01:55 8.7-2.0
2020-Jan-24 01:53 8.7-1.7
2020-Jan-24 01:50 120 3 8.7-2.0
2020-Jan-24 01:45 8.7-1.0
2020-Jan-24 01:40 8.7-2.0
2020-Jan-24 01:35 8.7-1.0
2020-Jan-24 01:30 8.7-1.0
2020-Jan-24 01:25 8.7-1.0
2020-Jan-24 01:20 8.7-1.0
2020-Jan-24 01:15 8.7-1.0
2020-Jan-24 01:10 8.7-2.0
2020-Jan-24 01:05 8.7-2.0
2020-Jan-24 01:00 8.7-2.0
2020-Jan-24 00:55 8.7-1.0
2020-Jan-24 00:53 8.7-1.1
2020-Jan-24 00:45 8.7-1.0
2020-Jan-24 00:40 8.7-1.0
2020-Jan-24 00:35 8.7-1.0
2020-Jan-24 00:30 8.7-1.0
2020-Jan-24 00:25 8.7-1.0
2020-Jan-24 00:20 8.7-1.0
2020-Jan-24 00:15 8.7-1.0
2020-Jan-24 00:10 8.7-1.0
2020-Jan-24 00:05 8.7-1.0
2020-Jan-24 00:00 8.7-1.0
2020-Jan-23 23:55 8.7-1.0
2020-Jan-23 23:53 8.7-0.6
2020-Jan-23 23:50 8.7-1.0
2020-Jan-23 23:45 8.7-1.0
2020-Jan-23 23:40 8.7-1.0
2020-Jan-23 23:35 8.7-1.0
2020-Jan-23 23:30 8.7-1.0
2020-Jan-23 23:25 8.7-0.0
2020-Jan-23 23:20 8.7 1.0
2020-Jan-23 23:15 8.7-0.0
2020-Jan-23 23:10 8.7-0.0
2020-Jan-23 23:00 8.7 1.0
2020-Jan-23 22:55 8.7 1.0
2020-Jan-23 22:53 8.7 0.6
2020-Jan-23 22:50 8.7 1.0
2020-Jan-23 22:45 8.7 1.0
2020-Jan-23 22:40 8.7 1.0
2020-Jan-23 22:35 140 4 8.7 1.0
2020-Jan-23 22:30 140 4 8.7 1.0
2020-Jan-23 22:25 8.7 1.0
2020-Jan-23 22:20 8.7 1.0
2020-Jan-23 22:15 8.7 1.0
2020-Jan-23 22:10 8.7 2.0
2020-Jan-23 22:05 8.7 2.0
2020-Jan-23 22:00 150 7 8.7 3.0
2020-Jan-23 21:55 8.7 3.0
2020-Jan-23 21:53 8.7 2.8
2020-Jan-23 21:50 8.7 3.0
2020-Jan-23 21:45 8.7 3.0
2020-Jan-23 21:35 180 3 8.7 3.0
2020-Jan-23 21:30 180 3 8.7 4.0
2020-Jan-23 21:25 180 3 8.7 4.0
2020-Jan-23 21:15 170 4 8.7 4.0
2020-Jan-23 21:10 180 6 8.7 4.0
2020-Jan-23 21:05 180 6 8.7 4.0
2020-Jan-23 21:00 170 6 8.7 4.0
2020-Jan-23 20:55 170 5 8.7 4.0
2020-Jan-23 20:53 170 4 8.7 4.4
2020-Jan-23 20:50 170 6 8.7 4.0
2020-Jan-23 20:45 170 6 8.7 5.0
2020-Jan-23 20:40 160 4 8.7 5.0
2020-Jan-23 20:35 160 5 8.7 5.0
2020-Jan-23 20:30 170 6 8.7 5.0
2020-Jan-23 20:25 170 6 8.7 5.0
2020-Jan-23 20:20 180 5 8.7 5.0
2020-Jan-23 20:15 170 6 8.7 5.0
2020-Jan-23 20:10 180 5 8.7 6.0
2020-Jan-23 20:05 190 5 8.7 5.0
2020-Jan-23 20:00 180 5 8.7 6.0
2020-Jan-23 19:55 170 7 8.7 6.0
2020-Jan-23 19:53 170 7 8.7 5.6
2020-Jan-23 19:50 170 6 8.7 6.0
2020-Jan-23 19:45 170 5 8.7 6.0
2020-Jan-23 19:40 180 5 8.7 6.0
2020-Jan-23 19:35 160 4 8.7 6.0
2020-Jan-23 19:30 170 5 8.7 6.0
2020-Jan-23 19:25 160 4 8.7 6.0
2020-Jan-23 19:20 150 5 8.7 6.0
2020-Jan-23 19:15 150 4 8.7 6.0
2020-Jan-23 19:10 180 4 8.7 6.0
2020-Jan-23 19:00 190 3 8.7 6.0
2020-Jan-23 18:55 170 4 8.7 6.0
2020-Jan-23 18:53 170 4 8.7 5.6
2020-Jan-23 18:50 170 4 8.7 6.0
2020-Jan-23 18:45 160 5 8.7 6.0
2020-Jan-23 18:40 170 3 8.7 6.0
2020-Jan-23 18:35 170 5 8.7 6.0
2020-Jan-23 18:25 170 6 8.7 6.0
2020-Jan-23 18:20 180 5 8.7 6.0
2020-Jan-23 18:15 180 6 8.7 6.0
2020-Jan-23 18:10 170 6 8.7 6.0
2020-Jan-23 18:05 170 6 8.7 6.0
2020-Jan-23 18:00 180 5 8.7 6.0
2020-Jan-23 17:55 160 6 8.7 6.0
2020-Jan-23 17:53 160 5 8.7 5.6
2020-Jan-23 17:50 160 4 8.7 5.0
2020-Jan-23 17:45 180 3 8.7 5.0
2020-Jan-23 17:35 160 6 8.7 5.0
2020-Jan-23 17:30 140 5 8.7 5.0
2020-Jan-23 17:25 150 6 8.7 4.0
2020-Jan-23 17:20 150 6 8.7 4.0
2020-Jan-23 17:15 150 5 8.7 4.0
2020-Jan-23 17:10 170 5 8.7 4.0
2020-Jan-23 17:05 160 5 8.7 4.0
2020-Jan-23 17:00 170 4 8.7 4.0
2020-Jan-23 16:53 140 6 8.7 3.9
2020-Jan-23 16:45 130 6 8.7 3.0
2020-Jan-23 16:40 8.7 3.0
2020-Jan-23 16:35 140 7 8.7 3.0
2020-Jan-23 16:30 140 5 8.7 3.0
2020-Jan-23 16:25 150 5 8.7 3.0
2020-Jan-23 16:20 170 5 8.7 3.0
2020-Jan-23 16:15 170 5 8.7 3.0
2020-Jan-23 16:10 130 5 8.7 2.0
2020-Jan-23 16:05 160 5 8.7 2.0
2020-Jan-23 16:00 150 5 8.7 2.0
2020-Jan-23 15:55 8.7 2.0
2020-Jan-23 15:53 8.7 1.1
2020-Jan-23 15:50 8.7 1.0
2020-Jan-23 15:40 150 3 8.7 1.0
2020-Jan-23 15:35 8.7 1.0
2020-Jan-23 15:30 8.7-0.0
2020-Jan-23 15:20 8.7-0.0
2020-Jan-23 15:15 8.7-1.0
2020-Jan-23 15:00 130 6 7.0-1.0
2020-Jan-23 14:55 140 7 7.0-2.0
2020-Jan-23 14:53 6.9-1.7
2020-Jan-23 14:50 130 6 7.0-2.0
2020-Jan-23 14:45 140 8 7.8-2.0
2020-Jan-23 14:40 140 8 7.8-3.0
2020-Jan-23 14:35 140 6 7.8-3.0
2020-Jan-23 14:30 140 5 7.0-3.0
2020-Jan-23 14:25 130 5 7.0-3.0
2020-Jan-23 14:20 7.0-4.0
2020-Jan-23 14:15 140 7 7.0-4.0
2020-Jan-23 14:10 7.0-4.0
2020-Jan-23 14:05 7.0-5.0
2020-Jan-23 14:00 7.0-5.0
2020-Jan-23 13:55 6.1-6.0
2020-Jan-23 13:53 6.1-6.1
2020-Jan-23 13:50 6.1-6.0
2020-Jan-23 13:45 5.2-7.0 Mist.
2020-Jan-23 13:40 5.2-7.0 Mist.
2020-Jan-23 13:35 6.1-7.0
2020-Jan-23 13:30 6.1-8.0
2020-Jan-23 13:25 6.1-8.0
2020-Jan-23 13:20 6.1-8.0
2020-Jan-23 13:15 7.0-8.0
2020-Jan-23 13:10 7.0-9.0
2020-Jan-23 13:05 7.0-9.0
2020-Jan-23 13:00 6.1-10.0
2020-Jan-23 12:55 6.1-10.0
2020-Jan-23 12:53 6.1-10.0
2020-Jan-23 12:50 7.0-10.0
2020-Jan-23 12:45 6.1-10.0
2020-Jan-23 12:40 6.1-10.0
2020-Jan-23 12:35 6.1-10.0
2020-Jan-23 12:30 7.0-11.0
2020-Jan-23 12:25 7.0-11.0
2020-Jan-23 12:20 7.0-11.0
2020-Jan-23 12:15 290 3 7.0-11.0
2020-Jan-23 12:10 280 3 7.8-11.0
2020-Jan-23 12:00 310 3 7.8-10.0